Temperature
10 11 11 12 14 15 17 19 21 21 22 22 22 22 24 24 24 23 19 18 17 17 16 17 17 17 17 17 16 16 16 16 16 16 16 16 16 16 16 16 16 16 16 16 16 16 16 16 16
10 10 11 12 14 15 17 19 20 21 21 20 20 21 22 23 20 18 17 17 17 16 16 16 16 17 17 17 16 16 16 16 16 16 16 16 16 16 16 16 16 16 16 16 16 16 16 16 16
9 10 11 13 14 16 18 19 20 20 19 20 20 20 21 21 19 17 17 17 16 16 16 16 16 17 17 16 16 16 16 16 16 16 15 16 16 16 16 16 16 16 16 16 16 16 16 16 16
9 10 11 13 14 16 18 19 20 19 19 19 20 20 19 18 17 17 17 16 16 16 16 16 16 16 16 16 16 16 16 16 16 16 16 16 16 16 16 16 16 16 16 16 16 16 16 16 16
9 11 12 12 14 16 18 18 18 19 19 19 19 19 18 17 16 16 16 16 16 15 15 16 16 16 16 16 16 16 16 16 16 16 16 16 16 16 16 16 16 16 16 16 16 16 16 16 16
9 10 11 13 14 16 17 16 17 18 18 18 18 19 18 16 16 16 16 16 16 15 15 16 16 16 16 16 16 16 16 16 16 16 16 16 16 16 16 16 16 16 16 16 16 16 16 16 16
10 10 11 13 14 15 16 16 16 17 17 17 17 18 17 16 16 16 16 15 15 15 15 15 15 15 15 16 16 16 16 16 16 16 16 16 16 16 16 16 16 16 16 16 16 16 16 16 16
9 11 11 12 13 14 15 15 15 16 16 16 16 17 17 16 16 15 15 15 15 15 15 15 15 15 15 15 16 16 16 16 15 15 16 16 16 16 16 16 16 16 16 16 16 16 16 16 16
8 9 11 12 13 14 14 15 14 14 15 15 15 16 16 15 15 15 15 15 15 15 15 15 14 14 14 14 15 15 15 15 15 15 15 15 15 15 15 16 16 16 16 16 16 16 16 16 16
9 9 11 12 13 13 13 14 13 14 15 14 14 15 15 14 14 14 14 14 14 15 15 15 14 14 14 14 14 14 15 15 15 15 15 15 15 15 15 15 15 16 16 16 16 16 15 15 15
9 10 11 11 11 11 12 13 12 13 14 14 14 14 14 14 14 14 14 14 14 14 14 14 14 14 14 14 14 14 14 15 15 15 15 15 15 15 15 15 15 15 15 15 15 15 15 15 15
9 10 10 11 10 11 11 12 12 13 13 13 13 13 13 13 13 14 14 14 14 14 14 14 14 14 14 14 14 14 14 14 15 15 15 15 15 15 15 15 15 15 15 15 15 15 15 15 15
9 10 9 9 10 10 11 11 12 12 12 12 12 13 13 13 13 14 14 14 14 14 14 14 14 14 14 14 14 14 14 14 15 15 15 15 15 15 15 15 15 15 15 15 15 15 14 14 14
9 9 9 9 10 10 11 11 11 11 11 12 12 12 13 13 13 13 13 13 14 14 14 14 14 14 14 14 15 15 14 15 15 15 15 15 15 15 15 15 15 15 15 15 15 14 14 14 14
8 9 10 9 10 10 11 11 12 11 11 11 12 12 12 12 12 13 13 13 13 13 14 14 14 14 14 14 14 15 15 15 15 15 15 15 15 15 15 15 15 15 15 15 14 14 14 14 14
9 9 9 10 10 10 11 11 12 11 11 11 11 12 12 12 12 13 13 13 13 13 13 13 14 14 14 14 14 14 14 15 15 15 15 15 15 15 15 15 15 15 15 14 14 14 14 14 14
9 10 10 10 10 10 11 11 12 11 11 12 12 11 12 12 12 12 13 13 13 13 13 13 14 14 14 14 14 14 14 14 14 15 15 15 15 15 15 14 14 14 14 14 14 14 14 13 13
9 9 9 9 10 10 10 11 11 11 11 12 12 12 12 12 12 12 12 13 13 13 13 13 13 13 13 13 14 14 14 14 14 14 15 15 15 15 14 14 14 14 14 14 14 14 13 13 13
9 9 9 9 9 10 10 11 11 11 11 12 12 12 12 12 12 12 12 13 13 13 13 13 13 13 13 13 14 14 14 14 14 14 14 14 14 14 14 14 14 14 14 14 13 13 13 13 13
8 8 9 9 9 10 10 10 11 12 12 12 12 12 12 11 12 12 12 12 13 13 13 13 13 13 13 13 14 14 14 14 14 14 14 14 14 14 14 14 14 14 14 13 13 13 13 13 13
8 8 8 8 9 10 10 11 11 12 11 11 11 11 11 11 11 11 12 12 12 13 13 13 13 13 13 13 13 13 13 13 13 14 14 14 14 14 14 14 14 14 14 13 13 13 13 13 13
8 8 8 8 8 9 10 10 11 12 12 12 12 11 11 11 11 11 12 12 12 12 13 13 13 13 13 13 13 13 13 13 14 14 14 14 14 14 14 13 13 13 13 13 13 13 13 12 12
8 8 8 8 8 9 10 10 11 11 11 12 12 11 11 11 11 11 11 12 12 12 12 12 13 13 13 13 13 13 13 13 13 13 13 13 13 13 13 13 13 13 13 13 13 13 13 12 12
8 8 8 8 9 9 9 10 11 11 11 11 12 11 11 10 10 10 11 11 12 12 12 12 12 13 13 13 13 13 13 13 13 13 13 13 13 13 13 13 13 13 13 13 13 13 12 12 12
8 8 9 9 9 10 9 10 10 10 10 10 11 10 10 10 10 10 10 11 11 12 12 12 12 12 13 12 12 13 13 13 13 13 13 13 13 13 13 13 13 13 13 13 13 12 12 12 12
7 8 8 9 10 10 9 10 10 10 10 9 9 9 9 9 10 10 10 10 11 11 12 12 12 12 13 13 12 12 13 12 12 13 13 13 13 13 13 13 13 13 13 12 12 12 12 12 12
7 7 7 8 8 9 10 10 11 10 10 10 9 9 9 9 9 10 10 10 10 11 11 12 12 12 12 12 12 12 12 12 12 12 12 13 13 13 12 12 12 12 12 12 12 12 12 12 12
7 7 7 8 8 9 10 10 10 9 9 9 9 8 8 8 8 9 9 10 10 11 11 11 11 12 12 12 12 12 12 12 12 12 12 12 12 12 12 12 12 12 12 12 12 12 12 11 11
7 7 7 7 8 9 9 10 9 8 8 8 8 7 7 7 7 8 9 9 10 10 10 11 11 11 11 12 12 12 12 12 12 12 12 12 12 12 12 12 12 12 12 11 11 11 11 11 11
6 7 7 7 7 8 9 9 8 8 7 7 7 6 6 6 7 7 8 8 9 9 10 10 10 11 11 11 11 12 12 12 12 12 12 12 12 12 12 11 11 11 11 11 11 11 11 11 10
Wind_Speed
6 4 3 4 7 10 23 22 19 18 17 14 9 9 11 12 8 2 3 14 20 22 25 26 24 23 22 21 21 20 21 20 21 22 22 21 21 21 21 20 20 20 19 19 19 18 18 17 17
4 3 4 5 11 18 23 22 20 18 14 10 10 10 10 10 3 2 5 15 20 22 24 25 25 24 22 22 21 21 21 21 21 22 22 21 21 21 21 21 20 20 19 19 18 18 17 16 16
4 4 5 7 15 24 24 19 18 14 11 11 10 10 10 7 4 4 7 17 20 20 22 24 25 24 23 22 21 21 21 21 21 21 21 21 21 21 21 21 20 19 19 18 18 17 16 16 15
3 4 5 11 22 24 22 17 15 14 12 11 10 8 6 2 2 4 11 18 19 19 21 24 25 24 23 22 21 21 21 21 21 21 21 21 21 21 21 20 20 19 18 18 17 16 16 15 14
3 5 10 15 24 23 18 13 12 14 14 12 11 10 8 3 3 7 14 18 19 19 20 24 24 23 23 22 21 21 21 21 21 21 21 21 21 21 21 20 20 18 17 17 16 16 15 14 14
5 5 10 18 22 21 19 14 13 14 12 12 11 11 9 5 6 10 14 16 18 18 19 23 23 23 22 22 21 20 20 20 21 20 20 21 21 21 20 20 19 18 17 16 16 15 15 14 13
7 8 13 17 18 18 17 14 14 14 14 12 10 10 8 7 8 10 13 15 17 18 18 19 22 22 21 20 20 20 20 20 20 20 20 20 20 20 20 19 18 17 16 16 15 14 14 13 12
5 6 13 16 17 17 12 11 11 13 13 9 9 10 9 7 7 9 12 14 16 17 17 18 20 21 21 20 19 19 19 19 19 20 20 20 19 19 18 18 17 16 15 15 14 14 13 12 11
4 7 13 14 13 12 9 10 8 7 8 9 9 9 7 8 9 10 11 13 15 16 16 17 18 19 19 19 20 19 19 19 19 19 20 19 17 17 17 17 17 16 15 14 13 12 12 11 10
6 9 13 9 8 9 8 10 8 7 10 10 9 8 6 9 12 13 13 16 17 17 17 16 16 17 18 17 18 18 17 18 17 17 19 16 15 14 14 17 16 15 14 13 12 11 11 8 8
6 9 9 7 7 8 9 9 7 9 11 11 10 9 9 11 13 15 14 15 16 17 17 16 15 16 17 14 15 13 14 15 15 17 16 14 13 13 13 13 14 13 13 11 11 10 7 6 5
6 8 9 7 6 7 9 7 7 10 11 10 10 10 11 12 13 14 15 13 13 15 17 16 16 15 16 15 13 13 11 11 12 14 15 13 10 11 11 10 11 11 10 9 9 7 7 6 6
8 8 8 9 8 8 9 9 8 11 9 9 9 10 13 13 12 12 12 12 12 13 16 17 16 16 14 14 12 12 11 12 13 13 14 14 10 10 10 9 10 10 9 9 8 7 7 6 6
4 5 7 8 8 6 8 9 7 9 6 6 8 11 11 12 12 9 11 12 13 13 13 16 16 15 14 13 13 12 12 12 12 12 14 14 12 10 9 9 9 9 9 8 8 7 6 5 4
3 5 6 6 6 4 5 8 8 7 4 6 8 9 10 10 10 10 10 10 11 12 13 14 17 16 15 14 14 12 12 12 12 12 14 14 13 12 10 8 8 8 9 9 7 7 6 5 4
4 5 4 2 3 3 5 8 6 3 4 6 7 7 8 8 9 8 8 8 10 12 13 13 13 15 15 12 13 11 12 12 11 12 13 14 14 13 11 8 8 9 9 8 7 6 6 5 5
4 4 4 2 1 2 4 7 5 4 6 7 7 7 8 7 8 7 7 7 9 11 12 12 13 15 14 12 11 11 12 12 11 12 12 14 14 14 12 9 8 10 8 7 6 6 6 5 5
3 3 3 2 1 3 5 7 7 6 6 8 7 7 7 8 9 7 6 7 8 10 11 11 11 13 13 10 8 9 10 10 10 11 12 14 14 15 13 9 10 10 7 7 7 7 6 5 4
4 4 4 4 3 3 6 8 8 6 6 7 7 7 7 8 7 5 5 5 7 10 10 10 10 11 10 9 8 9 10 9 9 10 13 14 14 14 12 9 9 9 8 8 8 7 7 6 5
2 3 4 3 2 3 5 8 7 5 5 5 5 6 7 7 5 4 5 5 7 8 10 11 11 11 10 9 9 7 8 8 9 8 11 14 14 14 12 11 9 9 8 9 9 8 6 5 5
2 2 3 3 4 3 4 5 4 4 4 3 4 4 5 5 5 4 4 5 6 7 9 10 12 12 12 11 8 6 6 6 7 9 9 11 13 14 13 12 10 10 9 9 10 9 9 7 6
2 2 3 3 3 1 3 3 3 3 3 3 3 3 4 3 3 4 4 5 6 7 6 9 10 11 12 11 10 11 10 10 10 9 9 11 13 13 14 13 12 10 9 9 9 9 9 8 7
2 3 3 3 2 1 2 2 2 1 2 4 4 4 4 3 2 3 4 5 5 6 6 7 8 9 10 11 12 12 10 9 7 8 10 11 10 12 12 13 12 10 9 10 9 9 9 8 8
3 2 1 1 1 1 2 2 1 1 3 5 6 5 3 2 2 1 2 3 3 5 6 6 8 8 9 11 12 13 12 11 10 11 11 10 9 9 11 11 11 10 9 10 9 9 10 8 7
2 2 1 1 1 0 1 1 1 4 6 7 7 6 4 3 1 1 1 2 3 4 5 6 7 8 8 11 12 13 13 13 14 13 13 11 9 9 12 11 10 9 9 8 8 8 8 7 7
1 2 2 1 1 1 0 1 1 6 7 7 7 6 5 4 3 2 1 2 3 4 4 6 7 7 7 8 10 11 12 10 10 12 11 11 10 10 11 11 10 9 9 9 8 7 7 6 7
1 0 2 1 1 1 1 1 1 6 9 10 9 9 8 6 5 4 2 2 2 2 3 4 5 5 5 7 8 9 11 11 10 10 10 8 8 7 10 10 10 10 10 9 8 7 7 7 7
1 1 1 1 1 1 1 1 3 8 11 12 11 10 9 9 7 6 4 3 2 2 1 1 2 4 5 5 6 6 8 9 10 9 9 9 8 8 9 10 10 10 10 9 8 7 7 7 6
1 0 1 1 2 1 1 1 4 6 8 9 10 10 10 9 8 6 5 5 4 3 2 1 1 2 3 4 4 6 7 7 8 8 8 8 8 9 10 11 11 10 10 9 8 8 8 8 7
1 1 1 1 1 1 1 1 4 5 6 8 9 10 10 10 8 7 7 6 5 5 4 3 2 1 1 2 3 4 5 6 7 7 7 8 9 10 10 11 10 9 9 8 9 8 8 8 8
Wind_Direction
296 279 241 206 207 221 230 227 225 222 220 217 215 217 219 212 212 207 85 159 155 155 156 156 155 154 152 150 148 147 147 148 148 146 145 144 141 138 136 134 131 127 123 119 116 112 109 107 104
283 238 212 209 217 220 225 223 223 223 219 214 218 223 224 223 231 96 137 156 156 155 156 159 154 154 153 151 150 150 151 150 149 148 147 146 143 140 139 136 132 127 123 119 115 113 112 109 107
255 223 211 211 223 224 223 214 220 221 224 221 217 226 232 228 194 160 152 156 156 157 158 155 154 154 154 153 153 152 153 152 150 148 148 146 144 142 140 136 130 125 122 121 118 116 114 112 109
219 203 218 225 226 229 232 226 221 221 221 225 219 216 221 240 195 162 154 159 158 159 158 154 155 155 155 155 155 154 153 152 149 148 148 146 145 142 139 133 128 125 124 123 120 118 115 113 112
212 215 220 227 229 230 234 238 228 227 222 219 221 223 219 201 162 156 162 164 161 160 157 156 156 156 156 156 156 157 156 154 151 150 149 148 146 142 137 133 131 130 129 126 122 119 117 115 113
197 212 223 228 227 229 232 233 232 231 231 230 229 230 226 200 170 164 167 169 165 161 157 158 157 157 158 157 157 158 157 155 154 153 151 149 146 142 139 136 135 134 132 129 125 122 119 118 116
215 208 228 234 232 228 229 229 233 234 232 232 236 237 221 193 171 167 171 173 169 163 158 159 161 161 158 156 156 157 158 156 155 153 149 145 143 142 141 140 138 136 134 130 127 125 122 120 119
226 216 229 233 232 230 229 230 235 237 234 238 239 234 220 192 164 163 171 174 171 167 163 162 164 165 164 161 156 155 154 153 151 147 142 140 141 142 143 144 140 137 134 131 129 127 125 123 122
208 221 227 228 232 232 230 230 234 251 236 242 246 252 242 190 172 168 173 177 175 171 167 165 166 166 166 164 159 156 152 151 147 143 140 145 151 151 153 147 140 138 136 134 132 130 128 127 125
206 225 231 234 240 247 248 243 238 240 231 237 239 241 212 187 183 182 184 186 181 175 169 168 169 168 166 162 163 165 162 160 161 157 157 160 158 156 154 143 142 139 137 135 132 132 140 152 143
215 232 244 249 253 258 259 254 245 237 238 237 230 220 203 198 193 191 193 195 187 179 173 174 169 170 168 165 166 166 166 166 166 164 164 162 157 154 156 155 152 151 152 151 145 157 163 164 152
229 242 256 260 259 252 250 250 245 232 246 265 257 231 212 206 199 196 196 197 189 184 178 175 172 171 173 169 168 168 167 168 167 168 168 165 164 166 166 168 167 167 170 165 171 172 167 168 166
236 247 261 275 271 260 254 246 254 257 259 268 260 233 215 209 205 198 198 196 194 190 181 174 175 175 174 172 170 172 171 172 170 171 174 174 172 173 170 171 172 176 174 174 177 178 173 177 177
245 253 270 276 267 257 253 256 250 263 268 257 244 232 219 212 204 197 199 198 197 190 182 179 179 179 176 176 175 174 174 174 174 175 179 179 178 176 175 175 178 179 181 181 183 182 182 187 192
248 255 267 267 259 247 241 250 242 264 259 245 244 236 225 220 212 205 202 203 199 195 183 187 182 180 181 180 178 175 176 177 178 178 181 183 182 180 180 180 182 182 182 183 185 184 193 194 200
231 232 236 243 251 257 225 244 248 262 243 245 247 244 233 224 216 212 201 207 206 203 188 190 183 180 182 182 181 180 181 181 182 181 184 188 187 186 185 187 188 184 183 187 188 192 196 200 211
217 229 249 259 226 259 228 248 262 270 249 247 243 243 238 235 222 219 205 205 212 208 197 190 188 182 184 185 185 184 182 185 186 185 187 190 191 191 191 193 191 186 188 193 193 200 205 208 214
231 250 261 269 274 258 248 260 273 280 261 249 242 241 239 239 230 221 212 209 208 207 199 191 193 184 184 185 185 186 184 187 189 190 191 191 193 194 194 194 194 189 192 196 198 201 208 215 216
254 253 267 283 289 268 261 272 281 286 265 252 243 238 240 243 235 216 212 209 204 199 192 191 194 187 181 184 183 189 188 188 191 194 195 195 196 194 194 192 193 193 198 201 202 203 207 211 210
232 250 287 303 300 268 272 278 280 272 262 257 250 244 241 246 235 216 211 208 204 199 192 191 196 193 189 192 188 192 189 188 191 192 195 197 197 195 196 197 195 194 198 202 203 203 208 207 206
286 274 292 308 317 247 266 271 264 270 259 257 251 251 255 251 245 224 209 209 195 200 200 198 196 199 197 194 187 180 187 181 188 193 195 197 196 195 194 197 198 197 199 203 204 206 212 213 207
303 318 280 291 293 272 264 264 271 274 267 270 271 271 274 272 254 230 212 210 204 209 209 202 200 205 202 194 192 189 200 200 201 196 195 194 198 198 197 198 200 200 202 205 206 208 213 217 214
297 316 287 286 280 278 266 240 282 304 282 307 303 291 285 279 269 242 224 215 212 210 208 202 198 202 201 197 196 198 209 210 202 196 196 195 196 200 200 200 200 201 202 204 205 207 210 215 218
292 298 273 215 217 232 278 249 310 346 307 312 315 312 311 295 289 276 254 227 219 214 205 201 197 206 204 204 199 200 206 207 203 199 199 199 198 199 199 199 200 202 202 201 201 207 210 212 215
335 308 269 179 190 344 20 257 321 359 342 325 322 328 339 339 340 335 264 244 226 220 205 205 202 208 212 210 208 206 207 209 211 205 205 203 199 200 198 197 197 197 197 195 193 197 199 202 205
340 324 331 326 330 10 237 260 360 2 354 346 342 347 355 358 358 353 306 254 233 224 207 204 207 214 211 213 214 214 213 214 216 211 205 203 204 201 194 193 189 188 189 187 185 186 188 193 201
310 327 323 304 305 278 241 280 360 9 12 11 10 11 7 1 355 349 340 294 264 236 218 204 213 217 210 214 212 211 210 212 213 210 205 203 202 195 190 186 184 182 183 183 178 183 185 185 191
330 317 262 274 291 243 270 300 344 358 360 3 9 9 4 2 3 359 354 350 0 347 314 175 205 217 215 215 213 214 211 210 210 206 201 195 192 184 183 184 182 180 178 175 174 178 179 182 183
18 11 307 296 308 289 265 29 19 353 354 359 4 4 0 359 1 2 1 2 14 18 20 42 164 214 217 220 217 212 203 200 201 197 196 188 181 178 178 176 176 175 172 171 174 175 174 177 176
310 328 302 289 302 297 292 1 39 16 7 7 6 4 3 3 3 7 9 12 20 22 23 21 19 4 300 241 216 198 188 187 189 190 191 182 178 176 174 170 167 166 167 168 173 175 177 176 176
Height
1509 1511 1513 1516 1516 1510 1497 1487 1486 1488 1490 1493 1495 1495 1492 1492 1495 1498 1498 1497 1500 1504 1507 1511 1515 1519 1522 1524 1527 1529 1531 1534 1536 1538 1540 1542 1544 1546 1548 1550 1551 1552 1553 1554 1555 1556 1557 1557 1558
1508 1510 1513 1513 1506 1500 1489 1486 1487 1488 1490 1494 1495 1495 1493 1493 1495 1495 1495 1497 1500 1504 1508 1511 1515 1518 1521 1524 1527 1529 1531 1534 1536 1539 1541 1543 1545 1547 1549 1551 1552 1554 1555 1556 1557 1558 1559 1560 1560
1506 1508 1510 1506 1498 1488 1482 1483 1486 1489 1492 1493 1493 1493 1493 1493 1495 1495 1495 1497 1501 1505 1508 1511 1515 1518 1521 1524 1527 1529 1532 1534 1537 1539 1542 1544 1546 1548 1550 1552 1554 1555 1557 1558 1559 1560 1561 1562 1562
1505 1507 1507 1501 1490 1484 1481 1482 1485 1488 1491 1492 1492 1492 1492 1494 1494 1494 1495 1498 1502 1505 1509 1511 1515 1518 1521 1524 1527 1529 1532 1535 1537 1540 1542 1545 1547 1549 1551 1553 1555 1557 1558 1559 1561 1562 1563 1563 1564
1503 1504 1500 1493 1486 1482 1483 1485 1486 1487 1487 1489 1490 1489 1490 1493 1492 1493 1495 1498 1502 1505 1509 1511 1515 1518 1521 1524 1527 1530 1532 1535 1538 1540 1543 1546 1548 1550 1552 1554 1556 1558 1559 1561 1562 1563 1564 1565 1566
1502 1500 1496 1487 1482 1481 1483 1486 1487 1486 1486 1487 1489 1488 1489 1491 1492 1493 1496 1499 1502 1505 1508 1511 1515 1518 1521 1524 1527 1530 1533 1535 1538 1541 1544 1546 1549 1551 1553 1555 1557 1559 1561 1562 1564 1565 1566 1567 1567
1499 1496 1491 1484 1481 1480 1482 1485 1485 1485 1485 1487 1488 1487 1487 1489 1491 1493 1496 1499 1502 1505 1507 1511 1514 1518 1521 1524 1527 1530 1533 1536 1539 1542 1544 1547 1550 1552 1554 1556 1558 1560 1562 1563 1565 1566 1567 1568 1569
1496 1495 1488 1484 1480 1479 1482 1483 1484 1484 1484 1487 1488 1486 1486 1488 1490 1492 1496 1499 1501 1504 1506 1510 1514 1517 1521 1524 1527 1530 1533 1536 1539 1542 1545 1548 1550 1552 1555 1557 1559 1561 1563 1564 1566 1567 1568 1569 1570
1495 1495 1486 1481 1480 1479 1481 1482 1483 1484 1484 1484 1485 1485 1485 1487 1489 1491 1494 1498 1500 1502 1505 1509 1513 1516 1520 1523 1526 1530 1533 1536 1539 1542 1545 1548 1551 1553 1555 1558 1560 1562 1563 1565 1567 1568 1569 1570 1570
1492 1489 1482 1482 1482 1481 1481 1481 1482 1482 1481 1482 1483 1483 1484 1485 1487 1489 1492 1495 1497 1500 1503 1507 1511 1515 1519 1522 1525 1529 1533 1536 1539 1542 1545 1548 1550 1553 1555 1558 1560 1562 1564 1566 1567 1568 1569 1570 1571
1488 1485 1482 1483 1482 1482 1481 1481 1481 1481 1479 1480 1481 1481 1483 1484 1485 1487 1490 1493 1495 1498 1501 1505 1509 1513 1517 1520 1524 1528 1531 1535 1538 1541 1544 1547 1550 1552 1555 1557 1560 1562 1564 1565 1567 1568 1570 1571 1571
1487 1484 1483 1482 1482 1481 1480 1480 1480 1478 1478 1478 1479 1479 1481 1481 1482 1484 1487 1490 1493 1496 1499 1503 1507 1511 1515 1518 1522 1525 1529 1533 1536 1539 1542 1545 1548 1551 1554 1556 1559 1561 1563 1564 1566 1568 1569 1570 1571
1485 1483 1482 1481 1480 1479 1479 1478 1477 1476 1476 1477 1476 1477 1479 1478 1480 1483 1485 1488 1490 1493 1496 1500 1504 1509 1512 1516 1519 1523 1527 1531 1534 1537 1541 1544 1547 1550 1553 1555 1558 1560 1562 1564 1565 1567 1568 1570 1571
1483 1483 1482 1480 1479 1478 1477 1475 1476 1474 1474 1474 1474 1475 1476 1477 1478 1480 1483 1484 1487 1490 1493 1498 1502 1506 1510 1514 1517 1521 1525 1529 1532 1535 1539 1542 1546 1549 1551 1554 1556 1559 1561 1563 1564 1566 1567 1569 1570
1484 1482 1479 1478 1477 1476 1476 1472 1472 1472 1472 1473 1473 1473 1474 1475 1476 1478 1479 1482 1485 1488 1492 1497 1500 1504 1508 1512 1515 1519 1523 1526 1530 1534 1537 1541 1544 1547 1550 1553 1555 1557 1559 1561 1563 1565 1566 1568 1568
1482 1479 1476 1475 1475 1474 1476 1470 1469 1471 1471 1471 1471 1471 1471 1473 1474 1476 1477 1480 1483 1485 1489 1493 1496 1501 1505 1509 1513 1517 1521 1524 1528 1532 1535 1539 1542 1545 1548 1551 1553 1556 1558 1560 1561 1563 1565 1566 1567
1477 1474 1472 1473 1473 1473 1472 1469 1468 1469 1469 1468 1469 1469 1469 1471 1472 1474 1475 1477 1480 1483 1487 1490 1494 1498 1503 1507 1510 1514 1518 1522 1526 1529 1533 1536 1540 1543 1546 1549 1551 1553 1556 1558 1559 1561 1563 1564 1565
1476 1472 1471 1472 1472 1472 1470 1468 1466 1467 1467 1466 1466 1466 1467 1469 1470 1471 1473 1475 1477 1480 1484 1487 1491 1495 1500 1505 1508 1511 1515 1519 1523 1526 1530 1534 1537 1540 1543 1546 1549 1551 1553 1555 1557 1559 1560 1562 1563
1478 1476 1473 1473 1473 1472 1469 1466 1463 1464 1465 1464 1464 1465 1466 1467 1468 1469 1470 1471 1474 1477 1481 1484 1488 1492 1496 1501 1504 1507 1511 1515 1519 1523 1527 1531 1534 1537 1540 1543 1545 1548 1550 1553 1555 1556 1558 1559 1560
1478 1477 1474 1471 1472 1471 1468 1465 1462 1463 1462 1463 1463 1464 1464 1465 1465 1466 1468 1470 1472 1474 1478 1482 1486 1489 1493 1497 1501 1505 1509 1513 1516 1520 1524 1527 1531 1534 1537 1540 1542 1544 1547 1549 1552 1553 1555 1556 1557
1478 1477 1476 1475 1473 1469 1468 1463 1461 1461 1461 1462 1462 1462 1463 1463 1464 1465 1466 1469 1471 1473 1476 1480 1483 1486 1490 1493 1497 1501 1505 1509 1513 1516 1520 1523 1527 1530 1533 1536 1539 1541 1543 1546 1548 1550 1552 1553 1554
1478 1478 1478 1476 1474 1470 1469 1463 1457 1458 1459 1460 1460 1460 1461 1462 1463 1464 1465 1467 1468 1471 1474 1477 1480 1483 1486 1488 1492 1496 1499 1503 1507 1511 1515 1519 1523 1526 1529 1532 1534 1537 1539 1541 1544 1546 1547 1549 1550
1480 1480 1478 1476 1474 1472 1468 1466 1459 1458 1459 1458 1459 1460 1460 1462 1462 1463 1464 1465 1467 1469 1471 1474 1477 1479 1481 1484 1488 1492 1496 1499 1503 1507 1511 1514 1518 1521 1524 1527 1529 1532 1535 1537 1539 1541 1543 1544 1545
1482 1480 1477 1476 1473 1472 1469 1465 1460 1460 1460 1459 1459 1459 1460 1460 1461 1461 1462 1463 1465 1467 1469 1472 1474 1476 1478 1481 1484 1488 1492 1495 1499 1502 1505 1509 1512 1515 1518 1521 1524 1527 1529 1532 1534 1536 1538 1539 1541
1482 1479 1473 1470 1468 1466 1469 1466 1463 1463 1463 1462 1461 1460 1460 1460 1459 1460 1460 1461 1463 1465 1466 1468 1470 1473 1475 1478 1481 1484 1487 1491 1494 1497 1500 1504 1507 1509 1512 1516 1519 1521 1524 1526 1529 1531 1532 1534 1536
1482 1482 1477 1471 1465 1464 1468 1465 1463 1465 1465 1464 1461 1460 1459 1459 1459 1459 1460 1460 1461 1463 1464 1465 1467 1470 1472 1474 1477 1480 1482 1486 1490 1493 1496 1498 1501 1504 1507 1510 1513 1516 1518 1521 1524 1525 1527 1529 1531
1483 1482 1483 1480 1476 1471 1465 1464 1463 1465 1464 1463 1461 1460 1460 1459 1459 1458 1459 1459 1460 1460 1461 1462 1464 1466 1468 1471 1473 1476 1478 1481 1484 1488 1490 1493 1497 1500 1503 1505 1508 1511 1514 1516 1518 1520 1522 1525 1526
1486 1484 1482 1480 1474 1466 1464 1463 1464 1466 1467 1465 1463 1462 1461 1459 1458 1457 1458 1458 1457 1458 1458 1460 1462 1464 1466 1468 1469 1471 1474 1476 1480 1482 1485 1488 1491 1494 1497 1500 1503 1506 1508 1511 1513 1516 1517 1520 1521
1487 1486 1484 1480 1477 1470 1465 1467 1471 1472 1472 1469 1467 1465 1463 1460 1459 1458 1457 1456 1456 1457 1457 1458 1460 1462 1463 1465 1466 1468 1470 1473 1475 1477 1480 1483 1486 1489 1492 1495 1498 1500 1503 1506 1508 1510 1512 1514 1516
1488 1487 1486 1482 1480 1477 1471 1475 1475 1475 1474 1472 1470 1467 1465 1462 1460 1458 1457 1456 1456 1456 1456 1457 1458 1459 1461 1462 1463 1464 1466 1469 1471 1473 1476 1478 1481 1484 1486 1490 1492 1495 1498 1501 1503 1506 1508 1510 1511